Regional Weather Roundup
Issued by NWS Newport/Morehead, NC

Home | Current Version | Previous Version | Text Only | Print | Product List | Glossary On
Versions: 1 2 3 4 5 6 7 8 9 10 11 12 13 14 15 16 17 18 19 20 21 22 23 24 25 26 27 28 29 30 31 32 33 34 35 36 37 38 39 40 41 42 43 44 45 46 47 48 49 50
000
ASUS42 KMHX 252324
RWRMHX
WEATHER ROUNDUP FOR EASTERN NORTH CAROLINA
NATIONAL WEATHER SERVICE NEWPORT/MOREHEAD CITY NC
700 PM EDT SAT APR 25 2015

NOTE: "FAIR" INDICATES FEW OR NO CLOUDS BELOW 12,000 FEET
WITH NO SIGNIFICANT WEATHER AND/OR OBSTRUCTIONS TO VISIBILITY

NCZ015>017-031-032-045>047-102-103-260000-
NORTH COAST

CITY           SKY/WX    TMP DP  RH WIND       PRES   REMARKS
EDENTON        HVY RAIN  52  50  94 E5        29.71F
ELIZABETH CITY LGT RAIN  50  44  80 NE14      29.74F
KITTY HAWK     RAIN      53  44  70 E6        29.73F
MANTEO         CLOUDY    51  48  90 E8        29.72F

$$

NCZ045>047-081-094-103-104-260000-
CENTRAL COAST

CITY           SKY/WX    TMP DP  RH WIND       PRES   REMARKS
FRISCO         CLOUDY    58  54  86 CALM      29.72F
SWANQUARTER      N/A     57 N/A N/A E7        29.65F

$$

NCZ095-097-098-100-101-260000-
SOUTHERN COAST

CITY           SKY/WX    TMP DP  RH WIND       PRES   REMARKS
BEAUFORT       CLOUDY    60  58  92 E3        29.70F
CEDAR ISLAND     N/A     61 N/A N/A CALM      29.74S
JACKSONVILLE   CLOUDY    61  57  87 SE3       29.67F
PINEY ISLAND   LGT RAIN N/A N/A N/A CALM      29.70F
WILMINGTON     CLOUDY    68  61  78 S7        29.65F


$$

NCZ011>013-027>030-043-044-078>080-089-090>093-098-260000-
COASTAL PLAIN

CITY           SKY/WX    TMP DP  RH WIND       PRES   REMARKS
AHOSKIE        RAIN      48  47  96 NE5       29.72F
CLINTON        DRIZZLE   61  60  97 CALM      29.65F
ELIZABETHTOWN  CLOUDY    63  61  93 CALM      29.64F
GOLDSBORO      LGT RAIN  59 N/A N/A N2        29.66F
GREENVILLE     RAIN      55  55 100 CALM      29.73F
HAVELOCK       LGT RAIN  61  56  83 E3        29.69F
KENANSVILLE    CLOUDY    60  58  91 SE5       29.67F
KINSTON        MOCLDY    61  55  82 E6        29.68F
NEW BERN       LGT RAIN  61  57  87 SE3       29.70F
RICHLANDS      CLOUDY    61  54  77 SE3       29.67F
ROCKY MOUNT    LGT RAIN  56  54  93 CALM      29.69F FOG
WASHINGTON     HVY RAIN  56  55  95 E3        29.69F
WHITEVILLE     CLOUDY    68  64  88 S5        29.62F

$$

AMZ130-135-150-152-154-156-158-170-250-252-270-ANZ085-086-088-633-658-670-260000-
MARINE OBSERVATIONS

STATION/POSITION TIME  TEMP    WIND        PRES    WAVE   SWELL
                       AIR SEA DIR/SP/G            HT/PER HT/PER
                 (UTC) (F)     (DEG/KT/KT) (MB)    (FT/S) (FT/S)
CHESAPEAKE LIGHT 2300   44      70/ 13/ 14 1008.7
64 E VA BEACH    2250   50 59   60/ 14/ 16 1008.0    3/ 7   2/ 7
DUCK             2300   49 55   70/ 17/ 19 1005.9
2 E DUCK         2211      54                N/A     2/ 3
10 NE DUCK       NOT AVBL
OREGON INLET     2300   53 59   40/  6/  7 1007.0
HATTERAS CG      2300   61 65  350/  7/  8 1005.5
DIAMOND BUOY     2250   63 70  280/  6/ 10 1006.5    3/ 9   3/ 9
CAPE LOOKOUT     2300   61     120/  8/  9 1005.2
BEAUFORT LAB     2300   61 63  130/  5/  6 1004.5
27 SE WRIGHTSVLE 2300   68 71  220/ 19/ 25   N/A
5 SE WRIGHTSVLE  2208   67 65  200/ 12/ 17 1005.1
225 S CAPE HAT   2250   70 71  200/ 19/ 23 1008.9    5/ 5   2/ 8
41 SE CHARLESTON 2250   73 71  220/ 19/ 21 1004.6    5/ 5   2/10

$$


USA.gov is the U.S. government's official web portal to all federal, state and local government web resources and services.